Theta_e
321 322 323 323 322 322 323 323 324 323 321 320 320 319 319 319 319 317 315 314 314 315 315 316 318 319 314 309 310 318 327 321 313 313 310 311 308 305 305 307 308 304 304 305 305 304 303
320 321 321 322 322 322 322 322 322 322 321 320 319 319 318 318 317 317 315 313 313 313 314 316 318 319 314 305 317 313 312 312 311 310 310 312 310 310 309 306 306 306 305 303 304 303 303
319 320 320 321 321 320 321 320 321 321 321 320 319 319 317 317 316 315 314 312 312 312 314 316 318 316 311 310 315 310 313 308 309 311 309 312 313 310 308 307 310 307 301 301 302 301 300
319 319 320 320 320 319 319 319 319 321 321 321 320 318 316 316 315 314 312 311 311 312 314 316 319 311 306 320 310 312 309 311 313 314 314 314 314 311 307 309 307 303 301 295 301 302 302
318 319 319 319 319 319 318 318 318 319 320 321 320 318 316 315 314 312 311 310 311 313 316 317 311 310 306 317 310 310 309 309 311 313 312 317 312 305 304 301 296 298 294 296 298 303 302
317 318 318 319 319 319 319 318 317 318 319 319 319 318 316 315 313 311 309 309 311 313 314 316 314 304 308 308 309 310 309 311 310 310 310 309 305 301 299 295 290 293 294 292 295 300 299
316 316 317 318 319 319 319 319 318 317 318 319 319 318 316 314 313 311 304 305 308 307 310 302 304 306 307 308 310 308 310 310 310 306 300 305 299 295 297 298 298 297 297 293 292 298 297
315 316 316 317 318 319 320 319 318 317 318 318 318 317 316 314 312 310 304 301 308 311 304 313 313 310 310 308 306 306 309 305 306 300 303 298 294 299 300 300 297 297 294 292 295 299 298
315 316 317 317 317 319 320 319 318 317 317 317 317 317 315 312 309 304 301 305 311 315 304 310 311 308 307 308 304 302 305 304 302 300 300 296 298 303 299 296 294 292 293 293 294 295 295
315 315 316 316 317 319 319 319 318 317 316 316 316 315 313 309 304 303 305 312 312 316 295 301 302 305 306 307 302 305 305 303 303 298 299 297 301 300 297 295 295 290 295 294 296 291 286
315 316 315 316 317 317 316 317 317 317 316 316 314 314 311 307 298 300 311 307 315 308 282 301 301 308 307 303 302 301 305 304 300 301 300 297 298 298 296 296 298 294 298 294 292 288 287
315 316 315 316 316 315 315 316 316 316 315 315 314 313 310 304 299 300 308 308 308 293 283 299 301 300 300 302 300 300 302 304 303 299 298 296 298 296 296 299 297 298 294 293 290 287 282
315 315 315 315 315 315 315 315 315 315 314 314 313 312 306 305 303 306 312 308 289 284 299 296 296 300 299 298 298 298 297 296 294 291 291 294 294 296 299 294 296 293 288 283 282 282 282
314 314 315 315 315 314 314 315 314 314 314 313 311 309 307 305 303 304 311 301 282 292 295 300 298 299 297 298 297 297 295 292 294 294 290 288 287 293 297 295 292 291 289 283 280 280 283
314 314 314 314 314 314 314 314 313 313 313 311 308 301 300 307 306 310 304 289 288 293 296 298 298 294 295 297 297 296 294 293 293 294 291 290 289 294 295 295 293 292 287 291 287 286 281
314 314 313 313 313 313 313 313 313 313 312 309 305 301 302 308 315 314 301 291 296 300 299 299 293 296 292 294 294 295 294 295 294 295 296 293 287 294 296 294 293 291 294 286 286 280 279
313 313 313 312 311 312 312 312 312 312 311 309 307 298 305 316 316 306 291 293 300 304 302 298 297 295 296 294 295 295 293 295 295 294 296 293 290 290 293 290 289 290 288 289 288 285 279
311 310 312 311 311 311 311 312 312 311 311 308 304 295 307 311 297 299 292 297 301 301 304 300 300 299 297 297 296 295 293 295 298 298 295 294 292 286 289 293 293 290 289 290 284 283 285
310 310 311 311 311 310 310 311 311 311 310 302 301 299 303 303 288 290 295 298 299 300 300 299 299 302 300 296 293 295 294 298 301 298 294 293 289 284 286 290 293 288 290 290 290 287 283
310 310 310 311 310 310 310 310 311 310 310 307 300 291 293 298 295 293 293 294 296 301 301 301 299 301 299 297 298 293 293 298 298 295 298 298 292 289 284 288 291 288 290 289 288 282 282
309 310 310 310 310 310 310 310 310 310 310 305 300 294 293 288 292 293 296 297 294 296 301 300 297 299 298 294 295 292 294 295 296 297 296 296 289 292 292 293 293 290 289 288 287 286 283
308 309 309 309 309 309 310 309 309 309 310 301 298 296 293 290 296 294 294 295 297 297 298 297 296 300 300 295 297 292 293 293 292 293 293 295 288 291 288 293 292 289 290 288 288 289 288
308 308 309 309 309 309 309 309 309 308 309 300 300 298 293 291 291 292 293 295 298 300 300 302 301 298 297 298 299 298 298 298 296 294 293 292 290 287 284 291 290 285 289 290 289 288 287
308 308 308 308 309 309 309 308 308 308 308 304 303 302 295 287 290 293 296 297 297 299 297 301 302 298 299 303 302 301 299 298 298 297 298 292 291 288 283 287 277 290 294 292 290 289 290
307 308 308 308 308 308 308 308 308 308 308 308 304 301 298 288 293 293 295 297 299 298 297 298 300 303 303 301 294 290 289 293 294 296 295 297 291 284 281 282 286 288 290 289 287 285 290
307 307 307 308 307 308 307 307 307 308 308 309 307 303 299 292 290 296 295 298 295 293 294 297 301 303 302 295 290 283 282 288 288 291 295 295 295 288 281 279 278 288 291 293 291 281 291
306 307 307 307 307 307 307 307 307 307 308 307 305 306 302 289 292 294 295 295 298 296 293 295 296 298 300 292 287 284 284 293 286 286 287 288 287 284 281 280 284 293 294 294 282 283 291
305 306 306 306 307 307 307 307 307 307 307 307 306 307 301 292 292 295 297 298 296 297 293 296 295 295 294 290 288 286 285 291 289 292 289 287 284 283 284 280 279 295 292 287 289 292 293
304 305 306 306 306 306 306 306 307 307 307 308 304 309 308 298 293 298 298 298 298 299 298 297 296 294 296 293 291 291 287 288 288 283 294 287 290 287 289 286 294 294 294 295 294 293 293
Wind_Speed
10 10 10 10 8 8 8 8 7 7 6 8 8 8 10 12 12 13 14 16 16 16 16 15 16 17 7 4 5 8 5 9 7 7 7 6 8 3 8 11 23 21 12 14 17 18 18
9 11 11 10 10 9 8 8 7 7 6 7 8 8 9 12 12 13 15 17 17 17 15 12 15 16 3 1 4 6 7 7 7 4 6 6 4 3 10 4 8 9 18 18 15 15 13
10 10 10 11 10 10 9 8 8 6 7 7 8 9 7 11 13 13 16 17 18 19 17 10 11 4 2 10 2 7 5 2 4 2 3 3 3 3 6 14 14 20 18 9 11 7 7
9 10 10 11 10 10 9 9 8 8 7 8 7 9 8 9 12 14 17 19 21 20 17 6 3 1 6 5 3 3 4 6 7 4 1 2 4 4 7 10 5 7 5 6 6 7 7
9 10 10 11 12 10 10 9 9 9 9 8 8 9 8 9 11 14 18 22 24 17 11 6 2 2 8 7 1 4 0 3 6 5 3 2 3 5 7 9 6 3 6 4 5 7 8
10 10 10 11 12 12 11 9 9 8 9 8 9 8 8 10 10 13 20 21 17 10 1 4 1 2 4 3 3 2 2 3 2 6 6 6 6 5 4 5 6 8 6 3 8 12 6
12 13 12 11 12 14 11 11 9 8 8 8 8 8 7 10 9 10 12 8 8 7 7 5 3 2 3 3 3 2 1 5 1 3 2 6 6 4 5 5 4 5 11 8 4 5 6
13 14 14 14 14 14 14 12 10 8 7 8 8 8 7 9 9 10 2 3 1 5 7 6 12 7 6 2 1 2 3 2 2 3 3 6 3 4 4 6 6 6 10 3 3 6 7
13 15 16 16 15 15 15 12 10 8 7 7 7 8 6 7 10 3 1 5 4 4 1 9 6 5 5 4 3 4 2 1 3 1 3 7 6 1 6 5 9 3 6 5 6 3 7
16 16 13 15 15 15 14 12 10 9 8 7 6 6 5 9 4 4 4 7 4 2 4 7 4 6 5 5 3 5 2 3 2 8 6 6 0 2 4 4 4 4 1 4 6 5 4
14 12 12 13 14 14 12 11 10 9 9 8 7 6 2 3 2 1 5 7 6 5 1 6 5 2 7 8 4 3 2 2 2 5 6 4 4 4 4 3 2 4 2 2 3 4 1
10 8 10 11 12 12 11 10 9 9 8 8 7 6 4 1 1 6 11 6 6 7 8 3 5 7 6 4 3 3 2 1 2 6 7 4 3 3 4 2 3 3 3 7 5 3 2
7 6 8 10 11 11 11 10 10 9 8 8 8 8 5 1 4 5 7 5 5 6 3 5 6 6 6 6 5 5 4 3 5 6 2 4 3 1 3 3 4 5 6 3 3 2 7
5 6 7 10 10 10 10 9 9 9 8 7 7 8 4 4 5 8 4 5 5 8 7 2 5 7 7 6 5 6 6 4 4 5 5 6 2 4 1 3 6 4 7 6 5 4 5
5 6 8 7 9 9 9 9 10 9 8 8 10 1 3 4 5 2 3 3 9 6 6 5 5 6 5 5 6 5 5 6 3 3 7 5 2 1 3 2 5 3 3 5 3 2 2
6 8 8 8 8 8 8 8 8 10 9 12 4 3 4 5 5 3 1 7 7 6 1 4 8 7 8 9 5 6 7 3 5 2 3 6 4 3 2 2 2 3 2 3 3 2 4
9 7 9 9 8 6 7 10 11 11 14 16 2 3 4 6 5 2 5 7 5 9 5 6 9 8 6 8 7 5 4 1 3 4 5 4 5 3 3 4 6 1 1 2 4 5 5
10 10 9 10 10 7 5 8 9 12 13 6 3 3 4 1 4 3 4 4 5 9 1 6 4 6 10 11 5 4 5 2 6 3 4 0 6 3 3 1 1 2 4 5 6 4 1
11 12 11 10 11 9 7 7 9 12 16 5 4 2 4 4 5 6 6 4 6 5 2 5 3 5 5 8 6 3 4 2 4 4 5 3 2 4 6 6 4 2 4 4 4 3 4
12 13 12 12 12 11 9 8 9 13 18 3 4 3 4 3 2 7 3 9 6 6 11 8 8 4 5 4 6 7 4 3 3 4 3 4 3 6 8 4 4 3 3 3 5 3 3
13 14 14 13 13 12 11 10 10 11 13 1 3 6 8 6 7 6 6 5 17 5 9 3 6 6 7 6 5 5 4 3 5 3 3 4 4 2 2 0 0 2 4 3 5 5 5
14 15 15 15 14 14 13 11 11 9 12 1 1 3 1 4 6 9 8 4 7 7 6 7 5 3 4 7 8 11 10 5 5 1 3 3 2 2 3 7 4 2 4 3 3 3 7
16 16 16 16 16 15 13 12 11 15 9 3 3 4 3 3 6 8 11 9 7 3 2 3 7 5 4 1 5 8 4 7 9 8 4 4 5 4 3 4 5 5 0 2 1 1 3
17 17 18 18 17 16 15 11 13 17 9 3 3 0 3 4 5 14 17 13 13 8 6 3 3 6 1 9 12 13 17 14 11 8 4 6 5 3 2 3 1 5 4 3 3 4 5
18 19 19 19 19 18 16 13 15 16 15 1 2 4 3 3 7 4 13 8 6 5 3 1 4 2 5 7 8 8 7 7 5 7 6 4 5 4 4 3 5 2 3 2 3 3 4
21 21 21 21 21 19 16 15 16 17 16 4 2 3 2 1 6 2 12 6 6 5 3 4 4 3 6 5 5 6 6 6 5 2 4 7 7 6 2 4 6 5 2 2 4 4 4
24 23 22 22 22 20 18 16 17 17 16 4 1 6 1 2 3 3 5 7 4 9 2 1 2 5 5 3 4 4 2 6 6 9 6 3 4 5 2 1 7 7 4 3 2 7 2
26 25 23 23 23 21 19 19 17 18 16 7 2 6 5 4 5 4 4 4 1 5 7 5 6 4 3 4 4 3 4 6 4 7 7 7 7 4 3 2 7 5 4 6 6 2 6
28 26 25 24 24 22 21 20 17 17 18 10 3 4 2 3 4 4 4 1 2 1 6 3 4 4 5 5 1 4 2 2 5 4 2 2 8 8 9 7 6 4 4 3 5 7 5
Wind_Direction
294 271 270 253 252 267 274 275 286 281 286 295 305 316 323 320 323 323 325 324 324 323 326 330 323 324 346 25 253 264 303 312 334 5 9 358 43 58 94 108 80 101 96 87 109 107 108
283 278 266 249 249 254 264 271 274 282 280 289 298 305 319 318 321 322 324 322 319 314 316 327 319 315 334 285 236 329 356 350 343 4 346 29 42 26 119 103 92 127 109 113 113 117 118
270 273 264 262 238 247 254 265 267 273 280 281 292 302 311 318 318 321 321 319 313 307 307 321 310 311 339 236 249 351 332 295 271 271 333 347 112 130 94 85 110 126 103 86 132 152 107
265 259 267 259 249 239 247 256 263 266 279 277 283 296 305 319 318 321 319 315 306 300 302 292 257 283 254 260 302 342 327 327 340 305 83 312 360 103 108 112 92 89 68 115 232 167 172
263 258 260 262 255 232 242 244 257 261 271 276 274 288 303 314 323 322 319 308 299 294 276 200 162 152 273 307 324 255 37 292 311 307 310 338 66 99 52 106 65 321 164 162 184 222 147
264 267 256 257 251 247 232 239 246 250 262 269 270 279 300 310 328 329 319 299 292 308 335 170 241 26 281 251 226 307 288 296 320 335 9 27 51 77 51 94 186 201 156 184 173 212 153
264 266 258 251 252 245 229 235 236 243 244 259 264 275 296 310 326 344 344 347 16 355 29 205 203 256 318 300 51 291 308 357 331 40 59 1 72 148 191 184 230 190 143 143 199 165 113
261 259 258 245 242 237 231 218 226 227 228 246 261 270 291 308 323 334 310 350 113 196 317 266 248 265 237 196 10 260 49 82 146 210 88 28 140 216 143 66 98 83 120 107 333 129 93
265 259 246 242 239 232 224 208 210 218 216 232 250 264 283 313 321 15 238 235 294 348 242 292 212 202 214 131 205 237 96 61 203 102 167 148 203 128 108 61 92 71 148 180 174 149 43
279 271 244 228 230 221 217 203 203 206 206 219 228 249 284 313 352 322 276 310 302 159 41 272 199 241 159 132 256 212 151 156 27 147 118 113 255 126 112 95 125 145 184 119 128 100 183
281 268 232 212 215 201 196 192 203 206 199 205 212 215 250 36 266 323 315 332 319 57 11 245 195 164 155 148 154 240 176 91 168 166 96 230 128 91 81 155 104 203 89 72 124 170 142
289 258 220 206 200 189 184 185 195 212 200 197 190 193 166 82 17 253 311 312 49 60 245 246 152 167 130 188 206 169 167 128 136 70 45 119 82 89 157 93 97 147 58 34 45 77 333
297 251 209 193 187 184 177 183 189 200 207 190 174 179 167 38 227 325 326 43 64 159 267 195 181 158 157 176 180 158 165 155 134 102 99 43 11 25 106 85 17 75 60 4 357 346 226
274 218 204 179 181 182 178 182 190 194 195 189 155 136 249 230 302 1 12 58 182 193 212 305 152 131 171 149 208 170 129 160 32 99 118 142 260 172 178 159 184 181 155 159 219 212 263
219 203 192 195 187 181 183 187 193 190 182 148 126 48 284 260 225 101 77 144 208 210 190 186 76 151 214 198 148 132 165 168 145 146 142 132 244 333 91 104 131 209 167 180 133 312 46
201 193 186 174 184 197 192 188 194 183 154 151 148 137 247 202 137 71 99 223 228 228 31 128 167 168 191 176 140 135 172 179 156 148 117 183 113 219 211 75 260 166 177 72 15 234 268
195 191 189 173 156 141 160 197 192 162 157 176 181 109 257 168 94 72 216 234 267 278 307 162 199 179 186 171 157 169 163 104 147 148 125 128 112 231 107 196 188 88 294 76 121 140 189
194 193 193 183 185 181 189 187 188 163 160 160 141 175 307 339 112 191 224 213 317 308 346 294 188 164 169 166 152 125 141 70 326 125 114 51 120 144 214 323 162 170 172 135 124 245 158
198 201 195 194 188 195 194 189 182 156 168 143 150 95 303 76 156 218 285 286 270 307 321 292 264 191 148 153 108 101 100 31 12 81 144 170 73 89 357 349 340 206 209 166 117 86 205
195 192 193 197 187 191 200 191 177 166 200 234 134 122 323 27 299 161 190 247 270 250 278 254 282 273 95 91 15 144 124 29 31 85 127 100 110 149 182 194 166 212 171 156 125 125 219
194 190 191 191 189 194 198 192 176 188 191 174 234 206 183 191 235 193 156 303 227 264 224 275 291 220 149 131 104 115 101 116 29 9 74 91 116 121 128 71 32 208 241 234 186 195 179
194 192 190 192 191 195 205 192 189 168 168 113 204 174 269 196 200 201 158 211 256 238 251 263 198 306 126 155 174 179 141 157 174 72 79 19 151 88 47 7 52 250 274 238 248 257 262
196 194 191 192 195 197 205 195 183 154 162 137 262 310 102 246 162 164 205 196 261 230 256 303 173 104 32 253 108 108 125 114 132 128 123 103 118 87 216 341 356 334 35 169 205 72 243
199 195 194 193 194 199 202 191 174 183 181 151 226 198 119 249 159 203 204 197 223 272 248 308 14 95 245 143 87 60 62 68 66 47 113 127 98 85 177 22 23 248 304 154 106 23 345
203 198 196 193 192 198 197 188 180 187 203 150 3 58 314 230 200 205 211 203 116 36 279 53 324 322 151 48 70 64 4 35 42 41 35 89 112 93 123 197 293 112 12 172 179 324 327
207 200 195 191 190 193 194 181 177 187 197 216 176 110 311 46 245 325 196 184 160 142 302 350 311 345 62 74 78 120 171 167 170 98 33 71 66 102 94 147 210 227 178 124 78 312 19
209 202 195 188 187 190 190 178 170 182 195 176 194 129 160 340 293 311 186 186 165 109 108 76 2 37 47 64 83 127 187 159 160 160 167 86 49 130 121 236 288 247 236 71 143 230 150
207 201 193 186 184 186 188 189 168 176 182 181 283 126 107 236 288 294 316 151 14 117 150 191 69 340 46 68 113 192 127 202 119 162 172 159 140 178 133 159 281 187 94 172 198 114 144
200 197 190 184 182 183 184 183 179 171 173 176 224 138 116 220 253 298 264 198 263 286 130 70 149 153 178 98 55 103 81 77 140 205 126 165 178 177 171 211 220 182 151 152 148 139 165